Tracking 19854 objects as of 23-Sep-2019
HD Live streaming from Space Station
objects crossing your sky now

FENGYUN 1C DEB

Track FENGYUN 1C DEB now!
10-day predictions


NORAD ID: 33650
Int'l Code: 1999-025DEK
Perigee: 845.1 km
Apogee: 1,083.4 km
Inclination: 99.0 °
Period: 104.2 minutes
Semi major axis: 7335 km
RCS: 0.0036 m2 (small)
Launch date: May 10, 1999
Source: People's Republic of China (PRC)
Launch site: Taiyaun Space Center, China (TSC)

Note: This is SATELLITE DEBRIS
aabbcc
Your satellite tracking list
Your tracking list is empty




NASA's NSSDC Master Catalog

Two Line Element Set (TLE):
1 33650U 99025DEK 19264.40999911  .00000390  00000-0  36320-3 0  9995
2 33650  99.0489 134.8062 0162427  82.4565 279.5007 13.81907671578018
Source of the keplerian elements: AFSPC